Regional Weather Roundup
Issued by NWS

Home | Current Version | Previous Version | Graphics & Text | Print | Product List | Glossary On
Versions: 1 2 3 4 5 6 7 8 9 10 11 12 13 14 15 16 17 18 19 20 21 22 23 24 25 26 27 28 29 30 31 32 33 34 35 36 37 38 39 40 41 42 43 44 45 46 47 48 49 50
000
ASUS43 KDMX 020607
RWRIA

WEATHER ROUNDUP FOR IOWA
NATIONAL WEATHER SERVICE DES MOINES IA
100 AM CDT TUE JUN 02 2015

NOTE: "FAIR" INDICATES FEW OR NO CLOUDS BELOW 12,000 FEET WITH NO
SIGNIFICANT WEATHER AND/OR OBSTRUCTIONS TO VISIBILITY.

* - THESE STATIONS ARE NOT NWS STATIONS...THUS NOT UNDER NWS
QUALITY CONTROL.  THEY ALSO DO NOT REPORT WEATHER SUCH
AS PRECIPITATION OR FOG.

IAZ001>003-012>014-020>022-031>034-043>046-020700-
   NORTHWEST IOWA

CITY           SKY/WX    TMP DP  RH WIND       PRES   REMARKS
CARROLL *      CLEAR     57  54  88 S12       30.10F
CHEROKEE *     CLEAR     60  48  66 S8        30.07S
DENISON *      CLEAR     59  55  88 SE10      30.07S
LE MARS *      CLEAR     63  50  63 SE12G17   30.04S
ORANGE CITY *  CLEAR     59  48  67 SE8       30.05S
SHELDON *      CLEAR     61  48  63 SE13      30.04S
SIOUX CITY     CLEAR     64  50  60 SE13      30.04S
6HR MIN TEMP:  63; 6HR MAX TEMP:  76;

SPENCER        CLEAR     58  47  66 S10       30.07F
6HR MIN TEMP:  58; 6HR MAX TEMP:  74;

$$

IAZ055>058-069>071-079>083-090>094-020700-
   SOUTHWEST IOWA

CITY           SKY/WX    TMP DP  RH WIND       PRES   REMARKS
ATLANTIC *     CLOUDY    59  55  88 S8        30.11S
AUDUBON *      CLEAR     57  54  88 S6        30.12S
CLARINDA *     CLEAR     59  55  88 S7        30.12F
COUNCIL BLFS * CLEAR     59  57  94 S8        30.08F
CRESTON *      CLEAR     55  55 100 S7        30.13S
HARLAN  *      CLEAR     59  59 100 S9        30.13S
LAMONI         CLOUDY    59  54  83 SE5       30.13S
6HR MIN TEMP:  58; 6HR MAX TEMP:  70;

RED OAK *      CLEAR     57  55  94 S5        30.11S
SHENANDOAH *   CLEAR     57  55  94 CALM      30.11F
$$

IAZ047>049-059>061-072>074-084-020700-
   CENTRAL IOWA

CITY           SKY/WX    TMP DP  RH WIND       PRES   REMARKS
AMES           CLEAR     56  51  84 S6        30.12R
6HR MIN TEMP:  55; 6HR MAX TEMP:  70;

ANKENY *       CLEAR     57  54  88 S3        30.13R
CHARITON *       N/A     55  54  94 S7        30.13S
DES MOINES     PTCLDY    58  52  80 S5        30.13R
6HR MIN TEMP:  58; 6HR MAX TEMP:  71;

GRINNELL*      CLEAR     55  52  88 S5        30.14S
KNOXVILLE *    CLEAR     55  54  94 S5        30.12S
MARSHALLTOWN   CLEAR     56  50  80 S5        30.12R
6HR MIN TEMP:  56; 6HR MAX TEMP:  69;

PELLA *        CLEAR     55  55 100 CALM      30.14S
PERRY *          N/A     57  53  86 S6        30.11S
$$

IAZ004>006-015-016-023>025-035-036-020700-
   NORTH CENTRAL IOWA

CITY           SKY/WX    TMP DP  RH WIND       PRES   REMARKS
ALGONA *       CLEAR     59  59 100 S10       30.10S
CLARION *      CLEAR     59  50  72 S8        30.11F
ESTHERVILLE    CLEAR     57  43  59 S10       30.07F
6HR MIN TEMP:  57; 6HR MAX TEMP:  71;

FORT DODGE *   CLEAR     59  48  67 S7        30.11F
MASON CITY     CLEAR     54  43  66 SE6       30.14R
6HR MIN TEMP:  54; 6HR MAX TEMP:  70;

FOREST CITY *  CLEAR     54  45  71 SE8       30.12S
IOWA FALLS *     N/A     55  48  76 S3        30.13S
$$

IAZ007>011-017>019-026>030-037>042-050>054-066-020700-
   NORTHEAST IOWA

CITY           SKY/WX    TMP DP  RH WIND       PRES   REMARKS
CEDAR RAPIDS   CLEAR     55  47  74 E6        30.13S
6HR MIN TEMP:  54; 6HR MAX TEMP:  68;

CHARLES CITY * CLEAR     55  41  58 SE8       30.14S
CLINTON *      CLEAR     54  43  66 E10       30.18F
DECORAH *      CLEAR     54  41  62 SE8       30.14R
DUBUQUE        CLEAR     52  41  66 SE8       30.16F
6HR MIN TEMP:  52; 6HR MAX TEMP:  66;

MONTICELLO *   CLEAR     55  46  71 SE8       30.15S
OELWEIN *      CLEAR     54  43  66 SE7       30.15S
WATERLOO       CLEAR     56  42  59 SE7       30.12S
6HR MIN TEMP:  56; 6HR MAX TEMP:  69;

$$

IAZ064-065-067-068-078-020700-
   EAST CENTRAL IOWA

CITY           SKY/WX    TMP DP  RH WIND       PRES   REMARKS
DAVENPORT      CLEAR     56  45  66 E12       30.16F
6HR MIN TEMP:  56; 6HR MAX TEMP:  69;

IOWA CITY      CLEAR     59  52  77 CALM      30.15S
6HR MIN TEMP:  58; 6HR MAX TEMP:  69;

MT. PLEASANT * CLEAR     54  54 100 SE3       30.13F
MUSCATINE *    CLOUDY    59  55  88 S3        30.13F
QUAD CITIES    CLEAR     54  46  74 E7        30.15F
6HR MIN TEMP:  54; 6HR MAX TEMP:  68;

$$

IAZ062-063-075>077-085>089-095>099-020700-
   SOUTHEAST IOWA

CITY           SKY/WX    TMP DP  RH WIND       PRES   REMARKS
BURLINGTON     CLEAR     54  53  97 CALM      30.13F
6HR MIN TEMP:  54; 6HR MAX TEMP:  67;

FAIRFIELD *    CLEAR     57  52  82 S5        30.13F
FORT MADISON *   N/A     55  54  94 CALM      30.14F
KEOKUK *       CLEAR     55  54  94 CALM      30.13F
OSKALOOSA *      N/A     54  52  93 S3        30.14R
CENTERVILLE *  CLEAR     54  54 100 S6        30.14F
OTTUMWA        CLEAR     53  53 100 CALM      30.13S
6HR MIN TEMP:  53; 6HR MAX TEMP:  67;

WASHINGTON *   CLEAR     55  54  94 S3        30.15S
$$

ABBREVIATIONS USED IN REMARKS
   TC - TEMPERATURES IN CELSIUS
  WCI - WIND CHILL INDEX
   HX - HEAT INDEX
  VSB - VISIBILITY
$$



USA.gov is the U.S. government's official web portal to all federal, state and local government web resources and services.